Location: ??????????
(48.4699°N, 37.9573°E)
Time: 03:20:26
(UTC+00:00)

Cosmos 1602 Rocket - Pass Details

Date: 20 January 2021
Orbit: 604 x 632 km, 82.5° (Epoch: 24 February)

Event Time Altitude Azimuth Distance (km) Brightness Sun altitude
Rises 16:48:58 0° 195° (SSW) 2,851 7.2 -26.2°
Reaches altitude 10° 16:51:11 10° 199° (SSW) 1,955 6.3 -26.6°
Enters shadow 16:54:23 46° 221° (SW) 821 4.3 -27.1°
